Miscellaneous Local Product
Issued by NWS Hastings, NE

Home | Current Version | Previous Version | Graphics & Text | Print | Product List | Glossary On
Versions: 1 2 3 4 5 6 7 8 9 10 11 12 13 14 15 16 17 18 19 20 21 22 23 24 25 26 27 28 29 30 31 32 33 34 35 36 37 38 39 40 41 42 43 44 45 46 47 48 49 50
000
AXUS43 KGID 282102
MISGRI

GID CWA HOURLY WEATHER ROUNDUP
NATIONAL WEATHER SERVICE HASTINGS NE
400 PM CDT FRI APR 28 2017

NOTE: "FAIR" INDICATES FEW OR NO CLOUDS BELOW 12,000 FEET WITH NO
SIGNIFICANT WEATHER AND/OR OBSTRUCTIONS TO VISIBILITY.

...SOUTH CENTRAL NEBRASKA...

CITY           SKY/WX    TMP DP  RH WIND       PRES   REMARKS
GRAND ISLAND   CLOUDY    37  36  96 NE21      29.88R FOG     WCI  26
HASTINGS       CLOUDY    39  37  92 NE21      29.84S FOG     WCI  29
KEARNEY        CLOUDY    37  34  87 NE20      29.87R WCI  27
ORD            CLOUDY    38  33  82 N17G24    29.90S WCI  28
YORK           LGT RAIN  39  39 100 NE22G28   29.85S WCI  29
AURORA         CLOUDY    38  38  97 NE22      29.86R FOG     WCI  28
LEXINGTON      CLOUDY    38  34  87 NE22G28   29.87R WCI  27
HOLDREGE       LGT RAIN  37  36  93 NE23      29.83S WCI  26
HEBRON         CLOUDY    41  41  97 NE15      29.83R FOG

...NEBRASKA PANHANDLE...

CITY           SKY/WX    TMP DP  RH WIND       PRES   REMARKS
CHADRON        CLOUDY    43  31  62 E15       29.96R
ALLIANCE       LGT SNOW  35  31  85 NE18      29.91R FOG     WCI  24
SCOTTSBLUFF    LGT SNOW  34  31  88 E20       29.92R VSB 1   WCI  23
SIDNEY         LGT SNOW  33  31  92 E22       29.87R FOG     WCI  21

...WESTERN AND NORTH CENTRAL NEBRASKA...

CITY           SKY/WX    TMP DP  RH WIND       PRES   REMARKS
VALENTINE      CLOUDY    49  24  37 NE14G26   29.94F
AINSWORTH      CLOUDY    46  30  54 NE17G25   29.94S
ONEILL         CLOUDY    44  27  52 NE14      29.95S
BROKEN BOW     CLOUDY    38  34  85 NE21G28   29.89R WCI  28
IMPERIAL       CLOUDY    37  33  85 NE21G26   29.86R WCI  26
NORTH PLATTE   CLOUDY    39  34  82 NE22G29   29.90R WCI  29
MCCOOK         CLOUDY    38  36  92 NE22      29.84R FOG     WCI  27

...EASTERN NEBRASKA...

CITY           SKY/WX    TMP DP  RH WIND       PRES   REMARKS
NORFOLK        LGT RAIN  40  34  79 N17       29.89S WCI  31
SO SIOUX CITY  LGT RAIN  45  35  68 NE10      29.91R
TEKAMAH        LGT RAIN  40  37  89 N21       29.88R FOG     WCI  30
COLUMBUS       CLOUDY    37  34  87 NE20      29.90R WCI  27
ALBION         LGT RAIN  40  36  83 N13G22    29.90S WCI  33
OMAHA EPPLEY   DRIZZLE   41  36  82 NE14      29.86R
OFFUTT AFB     CLOUDY    40  38  91 NE8       29.83R FOG     WCI  35
MILLARD        CLOUDY    42  40  91 NE8       29.86R FOG
LINCOLN        LGT RAIN  42  40  92 NE14G25   29.85R FOG
NEBRASKA CITY  CLOUDY    40  40 100 NE15G23   29.81R WCI  32
BEATRICE       CLOUDY    42  40  93 NE14      29.82R
FALLS CITY     CLOUDY    44  43  96 NE13      29.77R FOG

...NORTHERN KANSAS...

CITY           SKY/WX    TMP DP  RH WIND       PRES   REMARKS
GOODLAND       CLOUDY    42  38  85 NE17      29.78R
HILL CITY      CLOUDY    44  40  85 NE16      29.81R
NORTON         CLOUDY    39  34  81 N18G24    29.82R WCI  30
PHILLIPSBURG   CLOUDY    43  39  87 N18G25    29.81R
SMITH CENTER   CLOUDY    43  37  81 NE16G25   29.80R
HAYS           CLOUDY    57  47  69 N21G28    29.74R
RUSSELL        MOSUNNY   62  45  53 N20       29.70R
CONCORDIA      CLOUDY    46  45  96 N14       29.78R
SALINA         PTSUNNY   69  47  45 N14       29.69R
TOPEKA         PTSUNNY   62  58  86 N13       29.69R



USA.gov is the U.S. government's official web portal to all federal, state and local government web resources and services.